Content
SEND FEEDBACK

Daily
Averages
Monthly
Summary
United States of America

ST. LOUIS - SAINT LOUIS UNIVERSITY, MISSOURI


Home > North America > United States > Missouri
Elevation: 580 feet     Latitude: 38 38N     Longitude: 090 14W

WEATHER
 
SELECT A DAY
Number of Records: 186,092;   Date Range: 1/1/95 - 7/29/14
 
SHARE

PRINT THIS DATA

[ ← Previous Day ]
WEATHER ALMANAC - APRIL 7, 2013
[ Next Day → ]
[ °C ]   °F
Weather ElementAverageHighLow
Temperature66.2 °F78.1 °F (4:53 pm)51.1 °F (6:53 am)
Dewpoint49.1 °F55.9 °F (7:53 pm)43 °F (1:53 am)
Humidity55.7 %77 % (6:53 am)38 % (1:53 pm)
Barometer29.86 in29.92 in (8:53 am)29.82 in (2:53 am)
Wind Speed5.8 mph13.8 mph (5:53 pm)
Wind Gust23 mph (7:53 pm)
Weather ElementAverage
Visibility10 mi
Wind DirectionESE (121.3 °)

Weather ElementTotal
Precipitation---
Heating Degree Days0.4 (Base 65)
Growing Degree Days14.6 (Base 50)
Averaged from 23 records on April 7, 2013
WEATHER CONDITIONS BREAKOUT
WIND DIRECTION BREAKOUT
WEATHER BY HOUR - APRIL 7, 2013
[ °C ]   °F
Local TimeTemperatureDewpointHumidityBarometerVisibilityWind DirectionWind SpeedGust SpeedPrecipitationEventsConditions
1:53 AM63.0 °F43.0 °F48 %29.83 in10.0 miSW (220°)5.8 mphOvercast
2:53 AM62.1 °F43.0 °F50 %29.82 in10.0 miSSW (210°)5.8 mphOvercast
3:53 AM60.1 °F43.0 °F53 %29.83 in10.0 miSSW (210°)4.6 mphPartly Cloudy
4:53 AM60.1 °F44.1 °F55 %29.84 in10.0 miSW (230°)3.5 mphMostly Cloudy
5:53 AM55.9 °F44.1 °F64 %29.86 in10.0 miCalmOvercast
6:53 AM51.1 °F44.1 °F77 %29.89 in10.0 miCalmClear
7:53 AM53.1 °F46.0 °F77 %29.90 in10.0 miCalmClear
8:53 AM61.0 °F46.9 °F60 %29.92 in10.0 miCalmClear
9:53 AM64.9 °F46.9 °F52 %29.91 in10.0 miWSW (240°)3.5 mphClear
10:53 AM69.1 °F46.9 °F45 %29.92 in10.0 miCalmClear
11:53 AM72.0 °F48.0 °F43 %29.91 in10.0 miVariable4.6 mph0.00 inClear
12:53 PM75.0 °F48.9 °F40 %29.90 in10.0 miSouth (180°)4.6 mphClear
1:53 PM75.9 °F48.9 °F38 %29.89 in10.0 miEast (100°)5.8 mphClear
2:53 PM75.9 °F48.9 °F38 %29.87 in10.0 miENE (60°)6.9 mphClear
3:53 PM75.9 °F48.9 °F38 %29.85 in10.0 miESE (120°)4.6 mphScattered Clouds
4:53 PM78.1 °F51.1 °F39 %29.83 in10.0 miSE (130°)11.5 mphPartly Cloudy
5:53 PM73.0 °F52.0 °F48 %29.83 in10.0 miSE (140°)13.8 mphClear
6:53 PM70.0 °F54.0 °F57 %29.83 in10.0 miSE (140°)10.4 mphOvercast
7:53 PM66.9 °F55.9 °F68 %29.84 in10.0 miWest (260°)12.7 mph23.0 mphOvercast
8:53 PM64.9 °F55.9 °F73 %29.85 in10.0 miEast (90°)6.9 mph0.00 inOvercast
9:53 PM64.9 °F55.9 °F73 %29.86 in10.0 miESE (120°)9.2 mphClear
10:53 PM64.9 °F55.9 °F73 %29.85 in10.0 miSSE (160°)6.9 mphMostly Cloudy
11:53 PM64.9 °F55.9 °F73 %29.83 in10.0 miSouth (180°)11.5 mph19.6 mph0.00 inRainLight Rain
Hourly data recorded from KCPS, located miles away from St. Louis - Saint Louis University, Missouri







STORIES FROM OUR PARTNERS